Regional Weather Roundup
Issued by NWS Pendleton, OR

Home | Current Version | Previous Version | Text Only | Print | Product List | Glossary On
Versions: 1 2 3 4 5 6 7 8 9 10 11 12 13 14 15 16 17 18 19 20 21 22 23 24 25 26 27 28 29 30 31 32 33 34 35 36 37 38 39 40 41 42 43 44 45 46 47 48 49 50
000
ASUS46 KPDT 261625
RWRPDT
PENDLETON REGIONAL WEATHER ROUNDUP
NATIONAL WEATHER SERVICE PENDLETON OREGON
900 AM PDT SAT MAY 26 2018

NOTE: FAIR INDICATES FEW OR NO CLOUDS BELOW 12,000 FEET WITH NO
SIGNIFICANT WEATHER AND/OR OBSTRUCTIONS TO VISIBILITY.

# INDICATES UNOFFICIAL STATION AND DATA

WAZ520-261710-
EAST SLOPES OF WASHINGTON CASCADES

CITY            SKY/WX      TMP DP  RH  WIND    PRES   REMARKS
#BULLFROG       N/A         53  38  57  W13     N/A
#CLE ELUM HS    N/A         51  39  63  W8      29.98R
#EASTON DOT     N/A         49  40  71  N7      N/A
#ELK HTS DOT    N/A         54  54  100 W3      N/A
#GLENWOOD       N/A         54  43  66  S5      29.99S
#NELSON 3SW     N/A         52  40  63  CALM    30.17R
#NILE           N/A         55  41  59  SW3     29.31S
#TEANAWAY 4NE   N/A         54  43  66  W3      N/A
#TROUT LAKE 1NE N/A         53  42  66  W8      30.01R
#TROUT LAKE 1E  N/A         52  40  63  SW2     30.07R
$$

WAZ521-261710-
SIMCOE HIGHLANDS

CITY            SKY/WX      TMP DP  RH  WIND    PRES   REMARKS
#BICKLETON HS   N/A         57  41  55  SW6     29.65R
#SATUS PASS DOT N/A         50  38  63  N3      N/A
#CENTERVILLE 1SWN/A         52  40  63  W15     29.98R
#GOLDENDALE 1NE N/A         52  20  28  SW5     N/A
#GOLDENDALE 4W  N/A         55  20  25  W22     30.06R
#GOODNOE HILLS  N/A         58  42  55  W15     29.93S
#LYLE 6NE       N/A         50  42  74  SW13    30.06R
#PITT 4SE       N/A         48  40  74  CALM    30.04R
$$

WAZ026-261710-
KITTITAS VALLEY

CITY            SKY/WX      TMP DP  RH  WIND    PRES   REMARKS
ELLENSBURG AP   SUNNY       59  40  49  NW31G40 29.96S
#ELLENSBURG CWU N/A         57  40  53  N21     29.86R
#ELLENSBURG 3NE N/A         56  43  62  N12     28.04S
#ELLENSBURG 1E  N/A         57  41  55  W6      29.97R
#KITTITAS 3S    N/A         58  44  60  W10     29.90S
#MANASTASH RDG  N/A         57  57  100 N16G24  N/A
#ROCKY CYN DOT  N/A         61  42  50  W20G28  N/A
#RYEGRASS DOT   N/A         54  39  57  CALM    N/A
#THORP 6N       N/A         61  47  60  CALM    29.77R
$$

WAZ027-261710-
YAKIMA VALLEY

CITY            SKY/WX      TMP DP  RH  WIND    PRES   REMARKS
SUNNYSIDE AP    SUNNY       62  43  50  W15     29.96R
YAKIMA AIRPORT  SUNNY       66  40  38  NW15    29.96S
YAKIMA-VAGABOND SUNNY       64  38  38  W13     29.95S
#DONALD 2NE     N/A         70  11  10  SW7     28.81S
#GRANDVIEW      N/A         65  41  41  W3      29.95R
#MABTON         N/A         63  44  50  W3      29.97R
#MOXEE 2E       N/A         37  N/A N/A SW12    29.79S WCI 29
#NACHES 2SW     N/A         58  43  57  W15G26  29.93S
#OUTLOOK DOT    N/A         65  39  38  CALM    29.93R
#PARKER DOT     N/A         65  39  38  SE10    29.96R
#TERRACE HTS    N/A         62  43  50  NW6     29.89F
#TOPPENISH      N/A         63  42  46  CALM    29.86R
#I82 S UMTANUM RN/A         62  40  44  W8      N/A
#UNION GAP DOT  N/A         65  38  37  NW10    29.99S
#W YAKIMA       N/A         63  43  48  SW8     29.92S
#WHITE SWAN 5E  N/A         63  44  50  CALM    29.95R
#WILEY CITY 3W  N/A         67  37  33  CALM    29.93S
#ZILLAH DOT     N/A         65  40  40  W9      N/A
$$

WAZ028-261710-
LOWER COLUMBIA BASIN...WASHINGTON

CITY            SKY/WX      TMP DP  RH  WIND    PRES   REMARKS
HANFORD         MOSUNNY     67  37  33  NW20G29 29.92R
PASCO           PTCLDY      64  44  48  SW14    29.97R
PROSSER AWOS    N/A         64  45  50  W8      30.00R
RICHLAND AWOS   SUNNY       69  43  39  S9      29.97R
#BASIN CITY 5SW N/A         64  47  54  S1      29.92R
#BENTON CITY    N/A         65  45  48  W6      29.85R
#CONNELL 5N     N/A         62  47  58  W9      29.92R
#CONNELL 5NW    N/A         62  50  65  SW6     29.87R
#ELTOPIA 6NW    N/A         62  50  65  CALM    28.93R
#KAHLOTUS       N/A         57  45  64  W16G26  29.91R
#KENNEWICK 3S   N/A         59  45  60  SW7     29.95R
#PROSSER DOT    N/A         65  43  45  SW7     29.97R
#SAGEMOOR 2W    N/A         61  50  67  SW5     29.80R
#TOUCHET 2S     N/A         56  42  59  SW14G26 29.93R
#WEST PASCO     N/A         66  47  50  CALM    29.95R
$$

WAZ029-261710-
FOOTHILLS OF THE BLUES...WASHINGTON

CITY            SKY/WX      TMP DP  RH  WIND    PRES   REMARKS
WALLA WALLA AP  LGT RAIN    57  40  53  S15     30.01R
#CLYDE 6NW      N/A         56  43  62  S13G25  29.93R
#DELANEY DOT    N/A         59  40  49  S16G24  N/A
#LOWDEN 2SE     N/A         57  42  57  W2      29.98R
#PLEASANT VIEW 1N/A         56  43  62  S14     29.93R
#PRESCOTT       N/A         58  43  57  CALM    29.95R
#WHITMAN COLLEGEN/A         56  42  59  S2      30.03R
#WAITSBURG 6SSE N/A         53  38  57  E6      29.80R
#WAITSBURG 8N   N/A          0  N/A N/A S16     29.76S WCI -20
#WALLA WALLA 5E N/A         54  44  69  S10     N/A
#WALLA WALLA U  N/A         58  40  51  S5      29.98R
#WHITMAN MISSIONN/A         58  42  55  SW6     30.00R
$$

WAZ030-261710-
BLUE MOUNTAINS...WASHINGTON

CITY            SKY/WX      TMP DP  RH  WIND    PRES   REMARKS
#DIXIE 5SE      N/A         46  40  79  SW8     29.92S
$$

ORZ009-041-WAZ024-261710-
COLUMBIA RIVER GORGE

CITY            SKY/WX      TMP DP  RH  WIND    PRES   REMARKS
HOOD RIVER AP   CLOUDY      54  41  61  W5      30.12R
THE DALLES AP   SUNNY       60  40  47  NW22G39 30.06R
#ARLINGTON AIRPON/A         58  42  55  W17     30.00R
#CELILO DOT     N/A         59  40  49  SW15G25 N/A
#LYLE           N/A         56  45  66  W14G32  30.09R
#MARYHILL       N/A         56  39  53  N26G40  29.88S
#MURDOCK        N/A         57  43  59  NW23G36 30.02R
#RUFUS DOT      N/A         58  40  51  W28G35  N/A
#SMITHVILLE     N/A         58  44  60  W16G26  30.06R

$$

ORZ510-261710-
NORTH CENTRAL OREGON

CITY            SKY/WX      TMP DP  RH  WIND    PRES   REMARKS
#ANTELOPE       N/A         49  35  58  W7      29.86R
#CHENOWITH 1W   N/A         49  40  71  NW41G50 N/A    WCI 39
#COW CYN RST AREN/A         49  32  52  W7      N/A
#DUFUR          N/A         57  40  53  N7      29.99R
#DUFUR 9E       N/A         48  38  68  NW24G35 30.08R WCI 40
#GRASS VALLEY 1SN/A         52  39  61  W15     30.06R
#KENT DOT       N/A         51  30  44  W8      N/A
#SHANIKO 5WSW   N/A         47  32  56  W12     N/A    WCI 42
#SHANIKO 4NW    N/A         47  33  58  W9      30.04R
#TYGH VALLEY 2NEN/A         57  40  53  N1      30.01S
#WAPANITIA AIRPON/A         54  38  55  W10     30.03S
#WASCO DOT      N/A         55  40  57  W18G35  N/A
#WASCO 5NE      N/A         54  41  61  W15G24  29.99R
$$

ORZ511-261710-
CENTRAL OREGON

CITY            SKY/WX      TMP DP  RH  WIND    PRES   REMARKS
BEND AIRPORT    PTCLDY      55  36  49  NW12    30.06S
MADRAS AIRPORT  SUNNY       54  36  50  N5      30.09S
PRINEVILLE AP   CLOUDY      52  39  61  NW5     30.07R
REDMOND AIRPORT PTCLDY      52  38  59  W5      30.07R
#ASHWOOD SCHOOL N/A         52  36  54  SW7     30.03S
#BEND-AWBREY    N/A         52  40  63  N3      30.00R
#BEND-KIM LN    N/A         52  39  61  N8      29.96R
#CULVER         N/A         50  39  66  CALM    29.84R
#CULVER 8W      N/A         59  34  39  E5      30.06R
#LAKE BILLY CHINN/A         54  N/A N/A N7      30.14S
#POWELL BUTTE   N/A         48  38  68  W3      30.01R
#PRINEVILLE     N/A         54  43  66  CALM    30.07R
#PRINEVILLE 3N  N/A         52  42  69  W1      29.98R
#WARM SPRINGS   N/A         58  40  51  CALM    29.91R

$$


ORZ509-261710-
EAST SLOPES OF OREGON CASCADES

CITY            SKY/WX      TMP DP  RH  WIND    PRES   REMARKS
SISTERS AWOS    N/A         50  36  58  W12     30.03S
#CAMP SHERMAN   N/A         51  37  59  SW1     30.09F
#LA PINE 4NW    N/A         46  35  65  W3      30.05R
#LAVA BUTTE DOT N/A         45  33  63  SE3     N/A
#SISTERS ODOT   N/A         51  34  52  W8      N/A
#SISTERS 3N     N/A         51  35  54  SW3     30.09S
#SUNRIVER       N/A         51  41  68  S2      30.01R
#TUMALO 3W      N/A         51  37  59  N7      29.89R
#WANOGA BUTTE D N/A         44  N/A N/A NE2     N/A

$$

ORZ044-261710-
LOWER COLUMBIA BASIN...OREGON

CITY            SKY/WX      TMP DP  RH  WIND    PRES   REMARKS
HERMISTON       MOCLDY      62  40  44  SW18G29 30.00R
#BOARDMAN SCHOOLN/A         59  42  53  SW14G25 29.98R
#BOARDMAN 8SW   N/A         60  43  53  W16     30.00R
#ECHO 8SW       N/A         58  37  45  W13     30.02R
#I-84 EX 198 DOTN/A         56  39  53  NE18G26 N/A
#IONE SCHOOL    N/A         55  38  53  W15G24  30.01S
#UMATILLA       N/A         60  41  49  SW12G25 29.91R
$$

ORZ507-261710-
NORTHERN FOOTHILLS OF THE BLUES

CITY            SKY/WX      TMP DP  RH  WIND    PRES   REMARKS
PENDLETON AIRPT CLOUDY      57  32  38  SW5     30.01R
#ADAMS 3WNW     N/A         53  37  54  W8      29.96S
#ATHENA         N/A         52  39  61  CALM    29.99R
#CAYUSE         N/A         54  40  59  CALM    29.97R
#HELIX SCHOOL   N/A         53  37  54  N9      29.96R
#HELIX 3N       N/A         50  38  63  SW13    30.02R
#HOLDMAN 6E     N/A         51  40  66  SW8     29.77R
#M-F GROVE ELEM N/A         54  42  64  E2      29.98R
#M-FREEWATER 5SEN/A         51  44  77  CALM    30.01S
#PENDLETON DNTN N/A         58  33  39  CALM    N/A
#PDT AQUATIC CTRN/A         56  35  45  CALM    30.02R
#PDT SUNRIDGE   N/A         57  36  45  SW1     30.03R
#PENDLETON 6SE  N/A         54  41  61  S9      29.93R
#PENDLETON 7NW  N/A         55  39  55  W9      32.35S
#PILOT ROCK     N/A         55  39  55  CALM    30.03R
#TUTUILLA       N/A         53  40  61  CALM    30.06S
#UMAPINE 2E     N/A         58  41  53  NW1     29.98R

$$

ORZ508-261710-
SOUTHERN FOOTHILLS OF THE BLUES

CITY            SKY/WX      TMP DP  RH  WIND    PRES   REMARKS
#AJAX           N/A         51  31  46  CALM    30.18S
#FOSSIL SCHOOL  N/A         52  34  50  NW6     29.99R
#HEPPNER EOC    N/A         52  34  50  W6      29.92R
#HEPPNER 4NE    N/A         50  36  58  W7      29.97R
#LEXINGTON 2SE  N/A         57  36  45  W7      30.02R
#OLEX 4N        N/A         54  40  59  W20G31  30.01R
#RUGGS 5NE      N/A         50  32  50  W10     30.20R
#RUGGS 2SW      N/A         50  34  54  W9      29.99R

$$

ORZ502-503-261710-
BLUE MOUNTAINS

CITY            SKY/WX      TMP DP  RH  WIND    PRES   REMARKS
MEACHAM         CLOUDY      44  38  79  VRB3    30.03R
#BATTLE MTN DOT N/A         42  37  82  W1      N/A
#GRANITE        N/A         44  37  76  N1      29.68S
#HARDMAN 10S    N/A         44  34  68  CALM    30.05R
#LADD CYN SMT   N/A         49  41  74  NW8     N/A
#LADD CREEK ODOTN/A         51  31  46  NE1     N/A
#N POWDER DOT   N/A         53  43  69  N12     N/A
#PIKES PEAK     N/A         45  38  76  S16     27.99S WCI 38
#SUMMERVILLE 5NWN/A         50  45  83  CALM    26.65R
#TOLLGATE       N/A         38  37  96  S1      30.06R
#TROY SCHOOL    N/A         58  52  80  CALM    29.75R
#UKIAH          N/A         47  40  76  CALM    29.86R
$$

ORZ505-261710-
JOHN DAY BASIN

CITY            SKY/WX      TMP DP  RH  WIND    PRES   REMARKS
JOHN DAY        CLOUDY      52  43  71  NW7     30.04R
#ANTELOPE 9ESE  N/A         56  35  45  S8      N/A
#DAYVILLE SCHOOLN/A         58  39  49  W5      29.99R
#MITCHELL 8NW   N/A         51  31  46  NW3     30.00R
#MONUMENT HS    N/A         56  42  59  S5      29.98S
#MT. VERNON 5SE N/A         48  42  80  CALM    29.98R
#SPRAY SCHOOL   N/A         56  N/A N/A W3      N/A
$$

ORZ506-261710-
OCHOCO AND JOHN DAY HIGHLANDS

CITY            SKY/WX      TMP DP  RH  WIND    PRES   REMARKS
#HORSE RIDGE DO N/A         45  36  70  N5      N/A
#IZEE 6NW       N/A         50  40  68  N5      N/A
#KEYES SMT DOT  N/A         44  31  60  NW14    N/A    WCI 37
#PAULINA ODOT   N/A         51  40  66  W6      N/A
#PINE MTN OBS   N/A         35  33  92  NW1     N/A
#PRAIRIE CITY   N/A         52  43  71  CALM    30.15R
#SENECA         N/A         48  N/A N/A N6      N/A
#SENECA 9NW     N/A         46  40  79  CALM    29.88R
$$

ORZ049-261710-
GRANDE RONDE VALLEY

CITY            SKY/WX      TMP DP  RH  WIND    PRES   REMARKS
LA GRANDE       CLOUDY      53  41  64  NW18    30.01R
#COVE SCHOOL    N/A         53  48  83  CALM    30.01R
#COVE 6NW       N/A         53  47  80  NW5     29.92R
#ELGIN 3N       N/A         52  41  66  CALM    29.97R
#ELGIN 1E       N/A         52  43  71  CALM    N/A
#IMBLER SCHOOL  N/A         50  42  74  N3      29.96S
#ISLAND CITY 4N N/A         52  48  86  CALM    30.20R
#LADD CYN DOT   N/A         52  42  69  NW13    N/A
#UNION 1S       N/A         53  43  69  N5      29.92R
$$

ORZ050-261710-
WALLOWA COUNTY

CITY            SKY/WX      TMP DP  RH  WIND    PRES   REMARKS
#ENTERPRISE HS  N/A         50  46  86  CALM    29.76R
#IMNAHA 10S     N/A         52  49  89  CALM    29.95R
#JOSEPH         N/A         48  46  93  N2      30.19R
#JOSEPH 3N      N/A         49  42  77  NW5     30.03R
#JOSEPH 3W      N/A         46  45  96  E3      29.85R
#LOSTINE        N/A         51  46  83  CALM    29.69R
#LOSTINE 3SE    N/A         51  45  80  E5      30.06R
#MT HOWARD 8000 N/A         39  38  96  N1      30.05R
#PROMISE 1S     N/A         49  45  86  CALM    29.97R
#WALLOWA LAKE   N/A         47  45  93  CALM    30.03R



$$



USA.gov is the U.S. government's official web portal to all federal, state and local government web resources and services.